Weather History for Fort Lauderdale, FL

Change the Weather History Date:

Saturday, August 30, 2014

  Actual Average Record
Temperature  
Mean Temperature 88 °F -  
Max Temperature 91 °F 91 °F 96 °F (1987)
Min Temperature 82 °F 75 °F 67 °F (1950)
Cooling Degree Days 22    
Growing Degree Days 38 (Base 50)    
Moisture  
Dew Point 77 °F    
Average Humidity 73    
Maximum Humidity 85    
Minimum Humidity 59    
Precipitation  
Precipitation 0.00 in - - ()
Sea Level Pressure  
Sea Level Pressure 30.09 in    
Wind  
Wind Speed 10 mph (ESE)    
Max Wind Speed 16 mph    
Max Gust Speed 20 mph    
Visibility 10 miles    
Events Rain    
Averages and records for this station are not official NWS values.
T = Trace of Precipitation, MM = Missing Value Source: NWS Daily Summary

Daily Weather History Graph

Daily Weather History Graph

Search for Another Location

Airport:

Trip Planner

Search our weather history database for the weather conditions in past years. The results will help you decide how hot, cold, wet, or windy it might be!

Date:

Astronomy

Aug. 30, 2014 Rise Set
Actual Time 6:59 AM EDT 7:42 PM EDT
Civil Twilight 6:36 AM EDT 8:05 PM EDT
Nautical Twilight 6:08 AM EDT 8:33 PM EDT
Astronomical Twilight 5:40 AM EDT 9:01 PM EDT
Moon 11:15 AM EDT (8/30) 10:47 PM EDT (8/30)
Length of Visible Light 13h 29m
Length of Day
12h 42m
Waxing Crescent, 23% of the Moon is Illuminated
Aug 30
Waxing Crescent
Sep 2
First Quarter
Sep 8
Full
Sep 15
Last Quarter
Sep 24
New

Hourly Weather History & Observations

Time (EDT) Temp. Heat Index Dew Point Humidity Pressure Visibility Wind Dir Wind Speed Gust Speed Precip Events Conditions
12:53 AM 84.9 °F 96.6 °F 78.1 °F 80% 30.11 in 10.0 mi East 8.1 mph - N/A   Clear
1:53 AM 84.0 °F 94.8 °F 78.1 °F 82% 30.10 in 10.0 mi East 8.1 mph - N/A   Clear
2:53 AM 84.0 °F 94.8 °F 78.1 °F 82% 30.09 in 10.0 mi East 5.8 mph - N/A   Clear
3:53 AM 84.2 °F 92.3 °F 75.2 °F 74% 30.06 in 10.0 mi SE 8.1 mph - N/A   Scattered Clouds
4:53 AM 84.0 °F 94.8 °F 78.1 °F 82% 30.07 in 10.0 mi SE 6.9 mph - N/A   Clear
5:53 AM 84.0 °F 93.7 °F 77.0 °F 79% 30.08 in 10.0 mi ESE 8.1 mph - N/A   Clear
6:53 AM 84.0 °F 93.7 °F 77.0 °F 79% 30.10 in 10.0 mi ESE 6.9 mph - N/A   Clear
7:53 AM 84.9 °F 95.3 °F 77.0 °F 77% 30.12 in 10.0 mi ESE 10.4 mph - N/A   Scattered Clouds
8:53 AM 88.0 °F 101.3 °F 78.1 °F 72% 30.11 in 10.0 mi East 12.7 mph - N/A   Partly Cloudy
9:53 AM 89.1 °F 101.4 °F 77.0 °F 67% 30.11 in 10.0 mi ESE 12.7 mph - N/A   Scattered Clouds
10:53 AM 90.0 °F 101.3 °F 75.9 °F 63% 30.12 in 10.0 mi East 12.7 mph 19.6 mph N/A   Scattered Clouds
11:53 AM 90.0 °F 102.5 °F 77.0 °F 65% 30.12 in 10.0 mi East 10.4 mph - N/A   Scattered Clouds
12:53 PM 91.0 °F 102.9 °F 75.9 °F 61% 30.12 in 10.0 mi East 12.7 mph - N/A   Scattered Clouds
1:53 PM 90.0 °F 99.0 °F 73.9 °F 59% 30.10 in 10.0 mi ESE 15.0 mph - N/A   Scattered Clouds
2:53 PM 91.9 °F 103.9 °F 75.9 °F 59% 30.08 in 10.0 mi East 16.1 mph - N/A   Partly Cloudy
3:53 PM 90.0 °F 104.5 °F 78.1 °F 68% 30.07 in 10.0 mi East 15.0 mph - N/A   Mostly Cloudy
4:53 PM 89.1 °F 103.2 °F 78.1 °F 70% 30.05 in 10.0 mi East 15.0 mph - N/A   Scattered Clouds
5:53 PM 84.9 °F 96.6 °F 78.1 °F 80% 30.05 in 9.0 mi East 12.7 mph - 0.00 in Rain Light Rain
6:53 PM 87.1 °F 97.3 °F 75.9 °F 69% 30.06 in 10.0 mi East 13.8 mph - 0.00 in   Partly Cloudy
7:53 PM 86.0 °F 96.0 °F 75.9 °F 72% 30.07 in 10.0 mi ESE 13.8 mph - N/A   Partly Cloudy
8:53 PM 86.0 °F 96.9 °F 77.0 °F 74% 30.08 in 10.0 mi ESE 12.7 mph - N/A   Scattered Clouds
9:53 PM 84.9 °F 95.3 °F 77.0 °F 77% 30.10 in 10.0 mi ESE 10.4 mph - 0.00 in   Clear
10:53 PM 84.2 °F 96.1 °F 78.8 °F 84% 30.10 in 10.0 mi ESE 6.9 mph - N/A   Partly Cloudy
11:53 PM 82.9 °F 92.8 °F 78.1 °F 85% 30.11 in 10.0 mi ENE 5.8 mph - N/A   Partly Cloudy